STARLINK-2405, 47919

Orbit data source: Space-Track

STARLINK-2405, 47919 is a payload satellite owned by SpaceX/Seattle (US) in LEO that was launched on Sun, 14 Mar 2021 UTC via an FALCON 9 launch vehicle from the Air Force Eastern Test Range (AFETR). Payload-class satellites include a variety of spacecraft equipped with specific instruments for various scientific and technological missions. These include communications satellites like Starlink; space stations such as the ISS; scientific satellites like the Hubble; Earth observation satellites from companies like Planet Labs, Umbra, and HawkEye 360; GPS; miniature CubeSats for education and research; and military/defense satellites.

Loading next visibility...
Identifier
47919, 2021-021BM
Orbit
LEO
Country
Flag of USUS
Related business
Manufacturer
SpaceX/Seattle
Mission
Operational Commercial Communications
Bus & Motor
STARLINK, Unknown motor
Mass
260 kg wet, ~248 kg dry
Launch date (UTC)
2021-03-14 (5 years ago)
Launch vehicle
FALCON 9
Launch site
Air Force Eastern Test Range (AFETR)
Object type
Payload
Rocket body
Debris
Shape & HBR
Box + 1 Pan, 10.1 m
Radar Cross Section
13.562 m², Large (>1 m²)

Expand to show TLE details & history
Last TLE update: 2 days ago

TLE from 2 days ago
0 STARLINK-2405
1 47919U 21021BM  26171.21968372  .00000337  00000-0  22628-4 0  9998
2 47919  53.1579 163.9691 0001024  88.6118 271.5001 15.31699214291757
Epoch: 2026-06-20T05:16Z
TLE epoch observation values (Epoch: 2026-06-20T05:16:20.673Z)
Latitude
0.00001°
Longitude
176.44553°
Altitude
471.624 km
Speed
7.631 km/s
True Right ascension
10h 55m 52s
True Declination
0° 00' 00"
Sunlit
Object was in daylight at epoch
Visualization orbit readout
Latitude
Unknown
Longitude
Unknown
Altitude
Unknown
Speed
Unknown
Apparent Right ascension
Unknown
Apparent Declination
Unknown
Sunlit
N/A
Visualization observer readout
Local Sidereal Time
21:33:07
Azimuth
Unknown
Elevation
Unknown
Doppler factor
Unknown
Orbital elements
Apogee altitude
471.701 km
Perigee altitude
470.298 km
Semi-major axis
6,849.136 km
Eccentricity
0.0001
Inclination
53.1579°
RAAN
163.9691°
Arg. of periapsis
88.6118°
True anomaly
271.48837°
Mean anomaly
271.5001°
Eccentric anomaly
271.49423°
Mean motion
3.82904 °/min
Orbital period
94.02 mins
BSTAR
0.000022628
Loading maneuver chart data...
Computing Atmospheric mass density...

Documentation

Showing up to 5 results
|